Regional Weather Roundup
Issued by NWS Newport/Morehead, NC

Current Version | Previous Version | Text Only | Print | Product List | Glossary Off
Versions: 1 2 3 4 5 6 7 8 9 10 11 12 13 14 15 16 17 18 19 20 21 22 23 24 25 26 27 28 29 30 31 32 33 34 35 36 37 38 39 40 41 42 43 44 45 46 47 48 49 50
236 ASUS42 KMHX 051725 RWRMHX WEATHER ROUNDUP FOR EASTERN NORTH CAROLINA NATIONAL WEATHER SERVICE NEWPORT/MOREHEAD CITY NC 100 PM EDT THU MAY 05 2016 NOTE: "FAIR" INDICATES FEW OR NO CLOUDS BELOW 12,000 FEET WITH NO SIGNIFICANT WEATHER AND/OR OBSTRUCTIONS TO VISIBILITY NCZ015>017-031-032-045>047-102-103-051800- NORTH COAST CITY SKY/WX TMP DP RH WIND PRES REMARKS EDENTON CLOUDY 58 55 89 N10 29.55F ELIZABETH CITY CLOUDY 55 50 83 NE23G30 29.55F KITTY HAWK CLOUDY 56 50 80 N12G20 29.52F MANTEO CLOUDY 55 52 88 NE16G26 29.53F $$ NCZ045>047-081-094-103-104-051800- CENTRAL COAST CITY SKY/WX TMP DP RH WIND PRES REMARKS FRISCO CLOUDY 60 56 86 NE14G25 29.49F SWANQUARTER NOT AVBL $$ NCZ095-097-098-100-101-051800- SOUTHERN COAST CITY SKY/WX TMP DP RH WIND PRES REMARKS BEAUFORT PTSUNNY 68 58 70 N15 29.49F CEDAR ISLAND NOT AVBL JACKSONVILLE PTSUNNY 68 56 65 SE5 29.48F THUNDER PINEY ISLAND CLOUDY N/A N/A N/A N12 29.51F WILMINGTON TSTM 67 61 81 S7 29.49F $$ NCZ011>013-027>030-043-044-078>080-089-090>093-098-051800- COASTAL PLAIN CITY SKY/WX TMP DP RH WIND PRES REMARKS AHOSKIE HVY RAIN 54 52 93 NE10 29.56F CLINTON HVY RAIN 57 57 99 W10G16 29.55R ELIZABETHTOWN CLOUDY 65 54 68 W18G26 29.53R GOLDSBORO LGT RAIN 59 59 100 N9 29.51F GREENVILLE LGT RAIN 59 55 88 NE5 29.58S HAVELOCK PTSUNNY 66 56 70 NE8 29.51F KENANSVILLE CLOUDY 62 58 87 CALM 29.51S KINSTON CLOUDY 61 57 88 N7 29.52F NEW BERN CLOUDY 67 56 67 NE12 29.52F RICHLANDS CLOUDY 63 59 88 N9 29.49S ROCKY MOUNT LGT RAIN 56 55 97 NE7 29.54F FOG WASHINGTON HVY RAIN 57 52 85 N8 29.54S WHITEVILLE NOT AVBL $$ AMZ130-135-150-152-154-156-158-170-250-252-270-ANZ085-086-088-633-658-670-051800- MARINE OBSERVATIONS STATION/POSITION TIME TEMP WIND PRES WAVE SWELL AIR SEA DIR/SP/G HT/PER HT/PER (UTC) (F) (DEG/KT/KT) (MB) (FT/S) (FT/S) CHESAPEAKE LIGHT 1700 50 30/ 26/ 28 1001.5 64 E VA BEACH 1650 51 52 10/ 23/ 27 999.1 7/ 7 DUCK 1700 52 61 20/ 23/ 26 999.6 2 E DUCK 1611 59 N/A 6/ 7 OREGON INLET 1700 54 61 10/ 19/ 24 999.0 13E OREGON INLT 1700 56 N/A 7/ 6 2/25 HATTERAS CG 1700 58 68 10/ 22/ 26 998.3 DIAMOND BUOY 1650 59 71 30/ 21/ 23 998.1 6/ 6 2/ 9 CAPE LOOKOUT 1700 63 40/ 13/ 15 998.4 BEAUFORT LAB 1700 65 67 10/ 6/ 14 997.8 30 SE NEW RVR IN 1625 72 N/A 4/ 7 27 SE WRIGHTSVLE 1708 66 72 70/ 4/ 10 999.1 5 SE WRIGHTSVLE 1608 66 70 110/ 8/ 12 1000.1 225 S CAPE HAT 1650 74 74 270/ 21/ 25 1000.3 6/ 8 41 SE CHARLESTON 1650 65 74 270/ 21/ 27 1001.4 5/ 5 2/ 8 $$

USA.gov is the U.S. government's official web portal to all federal, state and local government web resources and services.